Easton, MD

5:43 AM EDT on September 16, 2019 (GMT -0400)
Easton / Newnam

Weather History for KESN - July, 2019

Change the Weather History Date:

Thursday, July 11, 2019

  Actual Average Record
Temperature  
Mean Temperature 82 °F -  
Max Temperature 91 °F 88 °F 95 °F (1966)
Min Temperature 72 °F 68 °F 56 °F (1953)
Cooling Degree Days 16    
Growing Degree Days 32 (Base 50)    
Moisture  
Dew Point 73 °F    
Average Humidity 85    
Maximum Humidity 100    
Minimum Humidity 59    
Precipitation  
Precipitation 0.00 in - - ()
Sea Level Pressure  
Sea Level Pressure 29.94 in    
Wind  
Wind Speed 5 mph (SSE)    
Max Wind Speed 21 mph    
Max Gust Speed 30 mph    
Visibility 10 miles    
Events Rain    
Averages and records for this station are not official NWS values.
T = Trace of Precipitation, MM = Missing Value Source: NWS Daily Summary

Daily Weather History Graph

Daily Weather History Graph

Search for Another Location

Airport or City:

Astronomy

Jul. 11, 2019 Rise Set
Actual Time 5:48 AM EDT 8:30 PM EDT
Civil Twilight 5:17 AM EDT 9:01 PM EDT
Nautical Twilight 4:38 AM EDT 9:41 PM EDT
Astronomical Twilight 3:53 AM EDT 10:25 PM EDT
Moon 3:43 PM EDT (7/11) 1:55 AM EDT (7/11)
Length of Visible Light 15h 44m
Length of Day
14h 42m
Waxing Gibbous, 74% of the Moon is Illuminated
Jul 11
Waxing Gibbous
Jul 16
Full
Jul 24
Last Quarter
Jul 31
New
Aug 7
First Quarter

Hourly Weather History & Observations

Time (EDT) Temp. Heat Index Dew Point Humidity Pressure Visibility Wind Dir Wind Speed Gust Speed Precip Events Conditions
12:19 AM 73.8 °F - 63.5 °F 70% 30.04 in 10.0 mi SSE 3.5 mph - N/A   Clear
12:39 AM 73.6 °F - 64.4 °F 73% 30.04 in 10.0 mi SSE 3.5 mph - N/A   Clear
12:59 AM 72.5 °F - 65.3 °F 78% 30.04 in 10.0 mi SE 3.5 mph - N/A   Clear
1:19 AM 72.7 °F - 66.7 °F 82% 30.04 in 10.0 mi SSE 3.5 mph - N/A   Scattered Clouds
1:39 AM 73.4 °F - 68.0 °F 83% 30.03 in 10.0 mi SSE 4.6 mph - N/A   Mostly Cloudy
1:59 AM 73.0 °F - 68.9 °F 87% 30.03 in 10.0 mi SE 3.5 mph - N/A   Mostly Cloudy
2:19 AM 73.4 °F - 69.8 °F 88% 30.02 in 10.0 mi SE 4.6 mph - N/A   Mostly Cloudy
2:39 AM 73.8 °F - 70.7 °F 90% 30.02 in 10.0 mi SE 4.6 mph - N/A   Scattered Clouds
2:59 AM 73.8 °F - 71.1 °F 91% 30.01 in 10.0 mi SE 4.6 mph - N/A   Mostly Cloudy
3:19 AM 74.5 °F - 71.8 °F 91% 30.00 in 10.0 mi SSE 5.8 mph - N/A   Mostly Cloudy
3:39 AM 74.3 °F - 71.8 °F 92% 29.99 in 10.0 mi SSE 4.6 mph - N/A   Scattered Clouds
3:59 AM 73.9 °F - 72.0 °F 93% 30.00 in 10.0 mi SSE 3.5 mph - N/A   Clear
4:19 AM 73.8 °F - 72.0 °F 94% 29.99 in 10.0 mi SE 3.5 mph - N/A   Scattered Clouds
4:39 AM 73.9 °F - 72.3 °F 95% 29.99 in 10.0 mi SSE 3.5 mph - N/A   Clear
4:59 AM 73.9 °F - 72.5 °F 95% 29.99 in 10.0 mi SE 4.6 mph - N/A   Clear
5:19 AM 74.5 °F - 73.0 °F 95% 29.99 in 10.0 mi SE 3.5 mph - N/A   Scattered Clouds
5:39 AM 75.2 °F - 73.6 °F 95% 30.00 in 10.0 mi SSE 4.6 mph - N/A   Mostly Cloudy
5:41 AM 75.2 °F - 73.6 °F 95% 30.00 in 10.0 mi SSE 3.5 mph - N/A   Mostly Cloudy
5:47 AM 75.2 °F - 73.4 °F 94% 30.00 in 10.0 mi SE 3.5 mph - N/A   Scattered Clouds
6:46 AM 75.2 °F - 75.2 °F 100% 30.00 in 10.0 mi SE 5.8 mph - N/A   Scattered Clouds
7:50 AM 78.8 °F - 75.2 °F 89% 29.99 in 10.0 mi South 9.2 mph - N/A   Scattered Clouds
8:47 AM 80.6 °F 87.1 °F 77.0 °F 89% 29.98 in 10.0 mi South 5.8 mph - N/A   Mostly Cloudy
9:35 AM 84.2 °F 96.1 °F 78.8 °F 84% 29.97 in 10.0 mi South 10.4 mph - N/A   Scattered Clouds
9:54 AM 84.2 °F 94.1 °F 77.0 °F 79% 29.97 in 10.0 mi SSW 9.2 mph - N/A   Scattered Clouds
10:48 AM 87.8 °F 95.6 °F 73.4 °F 62% 29.96 in 10.0 mi SW 10.4 mph - N/A   Scattered Clouds
11:45 AM 89.6 °F 99.8 °F 75.2 °F 62% 29.94 in 10.0 mi SSW 10.4 mph - N/A   Scattered Clouds
12:45 PM 91.4 °F 102.5 °F 75.2 °F 59% 29.93 in 10.0 mi South 11.5 mph - N/A   Scattered Clouds
1:45 PM 91.4 °F 102.5 °F 75.2 °F 59% 29.89 in 10.0 mi SSW 9.2 mph - N/A   Scattered Clouds
2:50 PM 91.4 °F 102.5 °F 75.2 °F 59% 29.86 in 10.0 mi SSE 12.7 mph - N/A   Scattered Clouds
3:50 PM 91.4 °F 102.5 °F 75.2 °F 59% 29.84 in 10.0 mi SSE 13.8 mph - N/A   Scattered Clouds
4:54 PM 89.6 °F 102.2 °F 77.0 °F 66% 29.82 in 10.0 mi South 11.5 mph - N/A   Scattered Clouds
5:50 PM 87.8 °F 102.5 °F 78.8 °F 75% 29.82 in 10.0 mi SSE 6.9 mph - N/A   Scattered Clouds
6:50 PM 78.8 °F - 73.4 °F 83% 29.81 in 10.0 mi North 6.9 mph - N/A   Scattered Clouds
7:54 PM 75.2 °F - 73.4 °F 94% 29.81 in 0.5 mi West 20.7 mph 29.9 mph N/A Rain Heavy Rain
8:50 PM 75.2 °F - 73.4 °F 94% 29.82 in 10.0 mi Calm Calm - N/A Rain Light Rain
9:52 PM 75.2 °F - 73.4 °F 94% 29.85 in 10.0 mi Calm Calm - N/A Rain Light Rain
10:19 PM 75.2 °F - 74.1 °F 96% 29.85 in 10.0 mi SE 3.5 mph - N/A   Light Drizzle
10:39 PM 75.2 °F - 74.1 °F 96% 29.84 in 10.0 mi SSE 4.6 mph - N/A Rain Light Rain
10:59 PM 74.8 °F - 73.8 °F 96% 29.84 in 10.0 mi Calm Calm - N/A   Scattered Clouds
11:19 PM 75.0 °F - 73.9 °F 96% 29.83 in 10.0 mi Calm Calm - N/A   Clear
11:39 PM 74.8 °F - 73.8 °F 96% 29.84 in 10.0 mi SSW 3.5 mph - N/A   Clear
11:59 PM 75.2 °F - 73.9 °F 96% 29.83 in 10.0 mi South 3.5 mph - N/A   Clear